Ana Sayfa
METAR-TAF:

METAR-TAF

Havaalanları :

Mount Airy/Surry County Airport

Mount Airy, Kuzey Carolina, Amerika Birleşik Devletleri

Enlem: 36-27-35N, Boylam: 080-33-11W, yükseklik: 380 m

Güncel hava durumu gözlemi

Rapor saat 13:55 UTC de 21 dakika önce yapıldı.
Rüzgar kuzey/kuzeybatıdan 4 kt
Sıcaklık -4°C
Nem 58%
Basınç 1030 hPa
Görüş mesafesi: 16.1 km
Açık gökyüzü

METAR: KMWK 131355Z AUTO 34004KT 10SM CLR M04/M11 A3043 RMK AO2 T10361110

Saat: 09:16 (14:16 UTC)


TAF: eksik

4.000'den fazla havaalanı için hava durumu gözlemleri ve tahminleri (METAR ve TAF raporları).

Kullanılabilir istasyonlar harita üzerinde sarı ve kırmızı noktalarla gösterilir.

İstasyonun adını görmek için fareyi noktanın üzerinde gezdirin.

Sonrasında hava gözlem ve tahminlerini görmek için tıklayın.

Haritayı değiştirmek için: yaklaştırmak için siyah artı işaretli yeşil düğmeye ve uzaklaştırmak için de eksi işaretli düğmeye hızla tıklayın; bitişik haritalar için yeşil okları kullanın.


METAR-TAF: